Regional Weather Roundup
Issued by NWS

Home | Current Version | Previous Version | Text Only | Print | Product List | Glossary On
Versions: 1 2 3 4 5 6 7 8 9 10 11 12 13 14 15 16 17 18 19 20 21 22 23 24 25 26 27 28 29 30 31 32 33 34 35 36 37 38 39 40 41 42 43 44 45 46 47 48 49 50
000
ASUS46 KPQR 232310
RWROR

OREGON REGIONAL WEATHER ROUNDUP
NATIONAL WEATHER SERVICE PORTLAND OR
400 PM PDT SAT JUL 23 2016

NOTE: "FAIR" INDICATES FEW OR NO CLOUDS BELOW 12,000 FEET WITH
NO SIGNIFICANT WEATHER AND/OR OBSTRUCTIONS TO VISIBILITY.

ORZ001>013-240000-
NORTHWEST OREGON


CITY           SKY/WX    TMP DP  RH WIND       PRES   REMARKS
ASTORIA        CLOUDY    67  54  63 NW14      30.27S
NEWPORT        SUNNY     66  55  68 N16G24    30.25F
PORTLAND       MOSUNNY   73  51  46 NW8       30.21F
VANCOUVER WA   MOSUNNY   73  52  47 N8G17     30.21F
SCAPPOOSE      PTSUNNY   73  52  47 N13G22    30.21F
HILLSBORO      SUNNY     74  53  48 NW14      30.20F
AURORA         MOSUNNY   75  52  44 N12       30.21F
MCMINNVILLE    SUNNY     78  52  40 N8        30.20F
SALEM          SUNNY     78  50  37 NE15      30.18F
CORVALLIS        N/A     81  50  34 NE15      30.18F
EUGENE         MOSUNNY   81  48  31 N17       30.16F
$$

ORZ021-028-240000-
SOUTHWEST OREGON


CITY           SKY/WX    TMP DP  RH WIND       PRES   REMARKS
NORTH BEND     SUNNY     68  55  64 N28G38    30.20S
BROOKINGS      SUNNY     76  58  53 VRB7      30.03F
ROSEBURG       SUNNY     84  45  25 NE10G22   30.11F
SEXTON SUMMIT  SUNNY     73  42  32 VRB5      30.20F
MEDFORD        SUNNY     90  41  18 VRB5      30.04F
$$

ORZ014>016-041-240000-
COLUMBIA GORGE


CITY           SKY/WX    TMP DP  RH WIND       PRES   REMARKS
TROUTDALE      SUNNY     75  53  46 MISG      30.20F
THE DALLES     SUNNY     82  50  32 NW16      30.07F
$$

ORZ029>031-041-044-049-050-061>064-502-503-505>511-240000-
EASTERN OREGON


CITY           SKY/WX    TMP DP  RH WIND       PRES   REMARKS
REDMOND        SUNNY     84  24  11 W6        30.14F
BEND           SUNNY     81  32  17 CALM      30.15F
PRINEVILLE     SUNNY     81  30  16 N9        30.15F
KLAMATH FALLS  SUNNY     82  30  15 W10       30.16F
LAKEVIEW       SUNNY    N/A N/A N/A NE6       30.18F
HERMISTON      SUNNY     84  44  24 VRB7      30.07F
PENDLETON      SUNNY     80  40  23 NW7       30.11F
JOHN DAY       SUNNY     82  32  16 NW8       30.16F
MEACHAM        SUNNY     74  31  20 VRB3      30.20F
LA GRANDE      SUNNY     82  39  21 N10G17    30.12F
BAKER CITY     SUNNY     80  38  22 NW9       30.14F
BURNS          SUNNY     82  26  13 S8        30.16F
ROME             N/A     87  18   8 CALM      30.11F
ONTARIO        SUNNY     86  40  19 SE5       30.06F
$$



USA.gov is the U.S. government's official web portal to all federal, state and local government web resources and services.